BEIDOU-3 M23 (C45)

Last updated on Aug. 14, 2020, 5:31 a.m. UTC

1 44542U 19061A   20226.98037597  .00000080  00000-0  10000-3 0  9998
2 44542  54.8432 255.0041 0008689 306.0642  83.9850  1.86231339  6067
UTC
Height (km)
Latitude
Longitude
Inclination
Orbital Period
UTC large
Height (km)
Speed (km/s)
/
Latitude / Longitude
Inclination (degrees)
Orbital Period (minutes)
Azimuth
Elevation
Range (km)
Doppler Factor
iOS Compass Heading
iOS Angle

Next 30 passes for location: Hong Kong

Rise time Rise Azimuth (degrees) Set time Set Azimuth (degrees) Duration Max altitude (degrees)

No matching passes for this satellites